Location: Frizzleburg
(41.0764°N, 80.4548°W)
Time: 00:49:51
(UTC+00:00)

Cosmos 2150 Rocket - Pass Details

Date: 17 November 2019
Orbit: 750 x 807 km, 74.0° (Epoch: 14 December)

Event Time Altitude Azimuth Distance (km) Brightness Sun altitude
Rises 10:37:35 0° 195° (SSW) 3,307 7.2 -17.7°
Reaches altitude 10° 10:39:59 10° 195° (SSW) 2,380 6.5 -17.3°
Maximum altitude 10:45:25 83° 108° (ESE) 816 4.2 -16.2°
Drops below altitude 10° 10:50:52 10° 21° (NNE) 2,379 6.7 -15.2°
Sets 10:53:16 0° 21° (NNE) 3,306 7.4 -14.8°
